StationID,Date,MaxTemp,MinTemp,Precipitation,Snowfall,SnowDepth
"CA002201602","1974-06-07",59.00,55.04,,,
"CA002201602","1974-06-08",42.08,32.00,8.00,0.00,
"CA002201602","1974-06-09",66.92,41.00,0.00,0.00,
"CA002201602","1974-06-10",64.04,42.98,0.00,0.00,
"CA002201602","1974-06-11",51.08,33.08,0.00,0.00,
"CA002201602","1974-06-12",62.06,35.96,0.00,0.00,
"CA002201602","1974-06-13",66.92,39.02,0.00,0.00,
"CA002201602","1974-06-14",75.02,51.98,0.00,0.00,
"CA002201602","1974-06-15",80.06,46.04,3.00,0.00,
"CA002201602","1974-06-16",80.06,39.02,0.00,0.00,
"CA002201602","1974-06-17",57.92,37.94,8.00,0.00,
"CA002201602","1974-06-18",48.02,37.04,15.00,0.00,
"CA002201602","1974-06-19",51.08,37.04,0.00,0.00,
"CA002201602","1974-06-20",60.98,42.08,0.00,0.00,
"CA002201602","1974-06-21",60.08,37.94,0.00,0.00,
"CA002201602","1974-06-22",64.04,42.08,0.00,0.00,
"CA002201602","1974-06-23",66.02,42.08,0.00,0.00,
"CA002201602","1974-06-24",57.92,37.94,0.00,0.00,
"CA002201602","1974-06-25",51.08,35.06,10.00,0.00,
"CA002201602","1974-06-26",55.04,35.06,0.00,0.00,
"CA002201602","1974-06-27",75.02,44.96,0.00,0.00,
"CA002201602","1974-06-28",78.08,37.04,56.00,0.00,
"CA002201602","1974-06-29",50.00,37.04,41.00,0.00,
"CA002201602","1974-06-30",53.06,39.02,25.00,0.00,
"CA002201602","1974-07-01",44.96,33.08,18.00,0.00,
"CA002201602","1974-07-02",53.96,33.98,0.00,0.00,
"CA002201602","1974-07-03",53.96,33.98,109.00,0.00,
"CA002201602","1974-07-04",44.96,33.08,3.00,0.00,
"CA002201602","1974-07-05",51.98,37.04,10.00,0.00,
"CA002201602","1974-07-06",60.08,44.96,5.00,0.00,
"CA002201602","1974-07-07",69.98,35.96,28.00,0.00,
"CA002201602","1974-07-08",62.06,37.94,0.00,0.00,
"CA002201602","1974-07-09",57.92,39.92,104.00,0.00,
"CA002201602","1974-07-10",60.98,42.98,0.00,0.00,
"CA002201602","1974-07-11",64.04,48.02,0.00,0.00,
"CA002201602","1974-07-12",78.08,53.96,0.00,0.00,
"CA002201602","1974-07-13",80.96,55.94,0.00,0.00,
"CA002201602","1974-07-14",75.02,46.04,33.00,0.00,
"CA002201602","1974-07-15",62.06,44.96,0.00,0.00,
"CA002201602","1974-07-16",69.98,55.04,0.00,0.00,
"CA002201602","1974-07-17",78.98,53.96,0.00,0.00,
"CA002201602","1974-07-18",84.02,53.06,0.00,0.00,
"CA002201602","1974-07-19",84.92,57.92,0.00,0.00,
"CA002201602","1974-07-20",82.94,53.06,8.00,0.00,
"CA002201602","1974-07-21",69.98,46.04,8.00,0.00,
"CA002201602","1974-07-22",62.96,50.00,13.00,0.00,
"CA002201602","1974-07-23",60.08,44.96,18.00,0.00,
"CA002201602","1974-07-24",53.96,44.96,3.00,0.00,
"CA002201602","1974-07-25",62.06,44.06,3.00,0.00,
"CA002201602","1974-07-26",66.02,44.06,0.00,0.00,
"CA002201602","1974-07-27",66.92,48.02,10.00,0.00,
"CA002201602","1974-07-28",77.00,53.96,0.00,0.00,
"CA002201602","1974-07-29",78.08,62.06,0.00,0.00,
"CA002201602","1974-07-30",78.08,59.00,0.00,0.00,
"CA002201602","1974-07-31",78.98,48.92,0.00,0.00,
"CA002201602","1974-08-01",78.98,51.08,13.00,0.00,
"CA002201602","1974-08-02",71.06,50.00,33.00,0.00,
"CA002201602","1974-08-03",66.92,50.00,41.00,0.00,
"CA002201602","1974-08-04",71.06,50.00,0.00,0.00,
"CA002201602","1974-08-05",57.02,48.92,0.00,0.00,
"CA002201602","1974-08-06",55.94,46.94,5.00,0.00,
"CA002201602","1974-08-07",71.06,42.08,0.00,0.00,
"CA002201602","1974-08-08",75.92,48.92,0.00,0.00,
"CA002201602","1974-08-09",78.08,48.92,30.00,0.00,
"CA002201602","1974-08-10",57.92,37.94,76.00,0.00,
"CA002201602","1974-08-11",69.08,37.94,0.00,0.00,
"CA002201602","1974-08-12",62.96,44.06,185.00,0.00,
"CA002201602","1974-08-13",71.96,44.96,124.00,0.00,
"CA002201602","1974-08-14",60.08,44.96,46.00,0.00,
"CA002201602","1974-08-15",48.92,41.00,36.00,0.00,
"CA002201602","1974-08-16",51.08,42.08,20.00,0.00,
"CA002201602","1974-08-17",51.98,46.04,23.00,0.00,
"CA002201602","1974-08-18",51.98,39.02,8.00,0.00,
"CA002201602","1974-08-19",51.08,37.04,76.00,0.00,
"CA002201602","1974-08-20",44.06,32.00,15.00,13.00,
"CA002201602","1974-08-21",39.92,32.00,33.00,0.00,
"CA002201602","1974-08-22",46.04,35.96,8.00,0.00,
"CA002201602","1974-08-23",46.94,37.94,3.00,0.00,
"CA002201602","1974-08-24",51.08,39.02,0.00,0.00,
"CA002201602","1974-08-25",62.96,35.96,0.00,0.00,
"CA002201602","1974-08-26",68.00,35.96,0.00,0.00,
"CA002201602","1974-08-27",69.98,42.98,0.00,0.00,
"CA002201602","1974-08-28",73.94,53.06,0.00,0.00,
"CA002201602","1974-08-29",66.02,39.92,0.00,0.00,
"CA002201602","1974-08-30",,,0.00,0.00,
"CA002201602","1974-08-31",,,0.00,0.00,
"CA002201602","1975-06-01",,,,0.00,
"CA002201602","1975-06-02",,,,0.00,
"CA002201602","1975-06-03",,,,0.00,
"CA002201602","1975-06-04",,,,0.00,
"CA002201602","1975-06-05",,,,0.00,
"CA002201602","1975-06-06",,,,0.00,
"CA002201602","1975-06-07",,,,0.00,
"CA002201602","1975-06-08",,,,0.00,
"CA002201602","1975-06-09",46.04,,0.00,0.00,
"CA002201602","1975-06-10",,35.06,8.00,0.00,
"CA002201602","1975-06-11",,37.04,20.00,0.00,
"CA002201602","1975-06-12",,39.02,,0.00,
"CA002201602","1975-06-13",,48.02,,0.00,
"CA002201602","1975-06-14",,,,0.00,
"CA002201602","1975-06-15",48.02,,8.00,0.00,
"CA002201602","1975-06-16",71.96,39.02,0.00,0.00,
"CA002201602","1975-06-17",,44.96,,0.00,
"CA002201602","1975-06-18",,,,0.00,
"CA002201602","1975-06-19",53.96,,0.00,0.00,
"CA002201602","1975-06-20",,42.08,,0.00,
"CA002201602","1975-06-21",,,,0.00,
"CA002201602","1975-06-22",78.98,,0.00,0.00,
"CA002201602","1975-06-23",77.00,53.96,0.00,0.00,
"CA002201602","1975-06-24",68.00,55.04,0.00,0.00,
"CA002201602","1975-06-25",69.08,48.92,0.00,0.00,
"CA002201602","1975-06-26",78.08,51.08,0.00,0.00,
"CA002201602","1975-06-27",69.08,57.02,13.00,0.00,
"CA002201602","1975-06-28",,53.06,,0.00,
"CA002201602","1975-06-29",,,,0.00,
"CA002201602","1975-06-30",,,,0.00,
"CA002201602","1975-07-01",78.08,,0.00,0.00,
"CA002201602","1975-07-02",66.92,53.96,20.00,0.00,
"CA002201602","1975-07-03",78.08,51.98,0.00,0.00,
"CA002201602","1975-07-04",,53.96,5.00,0.00,
"CA002201602","1975-07-05",64.94,,0.00,0.00,
"CA002201602","1975-07-06",78.08,51.98,0.00,0.00,
"CA002201602","1975-07-07",,51.98,0.00,0.00,
"CA002201602","1975-07-08",89.06,,0.00,0.00,
"CA002201602","1975-07-09",82.04,60.08,0.00,0.00,
"CA002201602","1975-07-10",87.98,50.00,0.00,0.00,
"CA002201602","1975-07-11",,59.00,,0.00,
"CA002201602","1975-07-12",,,,0.00,
"CA002201602","1975-07-13",,,,0.00,
"CA002201602","1975-07-14",80.06,,,0.00,
"CA002201602","1975-07-15",84.92,60.98,0.00,0.00,
"CA002201602","1975-07-16",,55.94,,0.00,
"CA002201602","1975-07-17",,,,0.00,
"CA002201602","1975-07-18",,,,0.00,
"CA002201602","1975-07-19",,,,0.00,
"CA002201602","1975-07-20",51.98,,0.00,0.00,
"CA002201602","1975-07-21",51.08,42.08,0.00,0.00,
"CA002201602","1975-07-22",64.94,44.06,0.00,0.00,
"CA002201602","1975-07-23",51.98,42.98,3.00,0.00,
"CA002201602","1975-07-24",51.98,42.08,0.00,0.00,
"CA002201602","1975-07-25",51.98,41.00,0.00,0.00,
"CA002201602","1975-07-26",,42.08,,0.00,
"CA002201602","1975-07-27",,,0.00,0.00,
"CA002201602","1975-07-28",51.98,42.08,0.00,0.00,
"CA002201602","1975-07-29",64.94,37.04,0.00,0.00,
"CA002201602","1975-07-30",71.96,42.08,0.00,0.00,
"CA002201602","1975-07-31",59.00,44.96,0.00,0.00,
"CA002201602","1975-08-01",59.00,44.96,0.00,0.00,
"CA002201602","1975-08-02",,44.06,3.00,0.00,
"CA002201602","1975-08-03",,,,0.00,
"CA002201602","1975-08-04",,,,0.00,
"CA002201602","1975-08-05",,,,0.00,
"CA002201602","1975-08-06",,,5.00,0.00,
"CA002201602","1975-08-07",,,5.00,0.00,
"CA002201602","1975-08-08",,,,0.00,
"CA002201602","1975-08-09",,,,0.00,
"CA002201602","1975-08-10",,,,0.00,
"CA002201602","1975-08-11",,,,0.00,
"CA002201602","1975-08-12",,,,0.00,
"CA002201602","1975-08-13",77.00,39.92,0.00,0.00,
"CA002201602","1975-08-14",,46.04,,0.00,
"CA002201602","1975-08-15",82.04,50.00,,0.00,
"CA002201602","1975-08-16",82.04,,0.00,0.00,
"CA002201602","1975-08-17",60.08,51.08,,0.00,
"CA002201602","1975-08-18",50.00,42.08,0.00,0.00,
"CA002201602","1975-08-19",62.96,41.00,0.00,0.00,
"CA002201602","1975-08-20",73.94,44.06,,0.00,
"CA002201602","1975-08-21",64.94,46.94,0.00,0.00,
"CA002201602","1975-08-22",60.08,44.96,0.00,0.00,
"CA002201602","1975-08-23",53.96,44.06,,0.00,
"CA002201602","1975-08-24",60.08,,,0.00,
"CA002201602","1975-08-25",,42.98,,0.00,
"CA002201602","1975-08-26",,,,0.00,
"CA002201602","1975-08-27",,,,0.00,
"CA002201602","1975-08-28",,,,0.00,
"CA002201602","1975-08-29",,,,0.00,
"CA002201602","1975-08-30",,,,0.00,
"CA002201602","1975-08-31",,,,0.00,
